JH4GLG-13 Weather Reports


time (UTC)temp
C
wind
direction
speed
KPH
gust
KPH
rain 1hr
cm
rain 24hr
cm
rain mn
cm
humidity
%
barometer
mb
20260504081117 17 0 0.0 0.0 0.00 0.00 0.00 59 1012.9
20260504045621 21 0 0.0 0.0 0.00 0.00 0.00 42 1008.9
20260504045617 21 0 0.0 0.0 0.00 0.00 0.00 42 1008.8
20260504044116 22 0 0.0 0.0 0.00 0.00 0.00 42 1008.3
20260504042616 21 0 0.0 0.0 0.00 0.00 0.00 42 1008.4
20260504041115 21 0 0.0 0.0 0.00 0.00 0.00 45 1008.2
20260504035616 20 0 0.0 0.0 0.00 0.00 0.00 50 1008.2
20260504034115 19 0 0.0 0.0 0.00 0.00 0.00 63 1007.8
20260504032616 19 0 0.0 0.0 0.00 0.00 0.00 62 1007.7
20260504031115 19 0 0.0 0.0 0.00 0.00 0.00 61 1008.0
20260504025615 19 0 0.0 0.0 0.00 0.00 0.00 60 1007.8
20260504024114 20 0 0.0 0.0 0.00 0.00 0.00 60 1007.4
20260504022615 19 0 0.0 0.0 0.00 0.00 0.00 59 1007.3
20260504021114 19 0 0.0 0.0 0.00 0.00 0.00 60 1007.2
20260504015615 18 0 0.0 0.0 0.00 0.00 0.00 64 1007.2
20260504014114 18 0 0.0 0.0 0.00 0.00 0.00 66 1007.4
20260504012615 19 0 0.0 0.0 0.00 0.00 0.00 61 1007.2
20260504011114 18 0 0.0 0.0 0.00 0.00 0.00 60 1007.3
20260504005620 18 0 0.0 0.0 0.00 0.00 0.00 61 1007.2
20260504005615 18 0 0.0 0.0 0.00 0.00 0.00 61 1007.1
20260504004114 18 0 0.0 0.0 0.00 0.00 0.00 62 1007.1
20260504002614 18 0 0.0 0.0 0.00 0.00 0.00 67 1006.9
20260504001113 18 0 0.0 0.0 0.00 0.00 0.00 69 1007.1
20260503235614 18 0 0.0 0.0 0.00 0.00 0.00 73 1007.0
20260503234113 17 0 0.0 0.0 0.00 0.00 0.00 77 1007.0
20260503232614 17 0 0.0 0.0 0.00 0.00 0.00 78 1006.8
20260503231112 17 0 0.0 0.0 0.00 0.00 0.00 79 1006.5
20260503225614 17 0 0.0 0.0 0.00 0.00 0.00 79 1006.4
20260503224113 17 0 0.0 0.0 0.00 0.00 0.00 79 1006.1
20260503222614 17 0 0.0 0.0 0.00 0.00 0.00 77 1005.9
20260503221112 17 0 0.0 0.0 0.00 0.00 0.00 79 1005.8
20260503215613 17 0 0.0 0.0 0.00 0.00 0.00 84 1005.6
20260503214112 17 0 0.0 0.0 0.00 0.00 0.00 88 1005.5
20260503212614 16 0 0.0 0.0 0.00 0.00 0.00 92 1005.0
20260503211112 16 0 0.0 0.0 0.00 0.00 0.00 93 1004.9
20260503205613 15 0 0.0 0.0 0.00 0.00 0.00 96 1004.7
20260503204112 15 0 0.0 0.0 0.00 0.00 0.00 97 1004.3
20260503202612 15 0 0.0 0.0 0.00 0.00 0.00 96 1004.1
20260503201111 15 0 0.0 0.0 0.00 0.00 0.00 96 1004.2
20260503195613 15 0 0.0 0.0 0.00 0.00 0.00 96 1004.3
20260503194111 15 0 0.0 0.0 0.00 0.00 0.00 95 1003.9
20260503192612 15 0 0.0 0.0 0.00 0.00 0.00 94 1003.5
20260503191111 15 0 0.0 0.0 0.00 0.00 0.00 93 1003.4
20260503185612 15 0 0.0 0.0 0.00 0.00 0.00 93 1003.4
20260503184111 16 0 0.0 0.0 0.00 0.00 0.00 93 1003.3
20260503182612 16 0 0.0 0.0 0.00 0.00 0.00 92 1002.9
20260503181110 16 0 0.0 0.0 0.00 0.00 0.00 92 1002.8
20260503175611 16 0 0.0 0.0 0.00 0.00 0.00 95 1002.6
20260503174110 16 0 0.0 0.0 0.00 0.00 0.00 97 1002.6
20260503172611 16 0 0.0 0.0 0.00 0.00 0.00 98 1002.3
20260503171110 16 0 0.0 0.0 0.00 0.00 0.00 99 1002.2